Location: Fairmont
(43.6520°N, 94.4610°W)
Time: 05:42:48
(UTC-05:00)

Daily predictions for brighter satellites

Satellite Brightness Start Highest point End
(mag) Time Altitude Azimuth Time Altitude Azimuth Time Altitude Azimuth
Cosmos 1420 Rocket 3.9 00:00:19 10° NNW 00:05:37 86° WSW 00:06:23 66° S
Cosmos 1821 Rocket 4.4 00:02:03 10° N 00:08:08 51° ENE 00:09:44 41° ESE
Cosmos 1766 3.6 00:05:37 10° NNW 00:09:10 60° WNW 00:09:10 60° WNW
Cosmos 1048 Rocket 3.8 00:10:25 66° SE 00:10:41 67° ESE 00:15:50 10° NNE
Meteor 1-21 4.1 00:09:37 57° S 00:10:52 89° E 00:16:38 10° N
Cosmos 1833 Rocket 2.8 00:10:09 42° SW 00:12:05 74° WNW 00:17:45 10° NNE
Terra 3.3 00:11:45 24° WSW 00:12:49 26° W 00:16:48 10° NW
Cosmos 1758 3.8 00:09:22 10° N 00:12:50 51° NE 00:12:50 51° NE
Cosmos 1452 Rocket 4.0 00:10:28 10° NNW 00:15:30 47° WSW 00:16:14 44° SW
Cosmos 1656 4.1 00:11:43 10° NW 00:16:54 46° WSW 00:17:39 43° SW
Spot 4 4.5 00:16:39 41° WSW 00:17:12 43° W 00:21:48 10° NNW
Cosmos 1758 Rocket 4.3 00:19:15 42° ENE 00:19:15 42° ENE 00:22:49 10° NNE
Cosmos 1812 Rocket 4.1 00:18:39 10° NNW 00:22:58 48° W 00:23:07 48° W
H-2A R/B 4.1 00:22:16 19° WSW 00:23:03 19° W 00:26:19 10° NW
ISS -2.0 00:25:09 32° NNW 00:25:09 32° NNW 00:28:00 10° NE
Cosmos 1470 3.9 00:23:44 10° N 00:26:57 36° ENE 00:26:57 36° ENE
BREEZE-M DEB (TANK) 3.3 00:35:06 41° ENE 00:35:06 41° ENE 00:39:39 10° ENE
Cosmos 1535 Rocket 4.4 00:28:15 10° N 00:34:23 76° E 00:35:35 58° SSE
Cosmos 2360 Rocket 4.3 00:33:10 10° N 00:37:15 20° NE 00:41:16 10° E
ALOS 2 2.7 00:37:45 70° NE 00:37:45 70° NE 00:41:56 10° N
Cosmos 1980 Rocket 2.1 00:33:19 10° NNW 00:38:59 75° WSW 00:39:36 67° SSW
Cosmos 1953 Rocket 3.6 00:45:04 78° NNE 00:45:04 78° NNE 00:49:16 10° N
ARGOS Delta rocket 4.0 00:40:41 10° NNE 00:45:55 76° E 00:46:19 71° SE
Timation 2 Rocket 4.2 00:43:44 39° SW 00:46:06 67° WNW 00:52:16 10° NNE
Cosmos 2322 Rocket 2.8 00:41:18 10° NNW 00:46:51 49° ENE 00:48:24 39° ESE
Cosmos 1805 4.4 00:43:43 10° NNW 00:46:42 37° WNW 00:46:42 37° WNW
Cosmos 1825 Rocket 3.9 00:49:14 57° WNW 00:49:14 57° WNW 00:53:18 10° N
Cosmos 1707 4.0 00:50:29 34° NE 00:50:29 34° NE 00:53:05 10° NNE
Spot 2 4.5 00:47:14 10° NNE 00:52:18 67° ESE 00:52:23 67° ESE
USA 32 4.2 00:57:22 58° ESE 00:57:38 58° E 01:02:48 10° NNE
USA 267 3.7 00:53:15 10° NE 00:59:40 61° NNW 01:06:05 10° WSW
CZ-2C R/B 3.2 01:03:52 62° SW 01:04:17 64° W 01:09:50 10° NNW
SME Rocket 4.4 01:05:29 39° WSW 01:05:47 39° WSW 01:10:06 10° NW
NOSS 3-1 (C) 4.1 01:01:22 10° NW 01:08:54 73° NE 01:13:13 31° SE
SeaSat 1 3.1 01:09:31 41° W 01:09:31 41° W 01:13:47 10° NW
CZ-4B R/B 3.5 01:10:59 23° NNE 01:10:59 23° NNE 01:12:36 10° N
Cosmos 2082 Rocket 3.9 01:06:39 13° WSW 01:10:34 27° NW 01:15:19 10° N
Cosmos 1953 3.7 01:07:42 10° NNW 01:10:40 31° WNW 01:10:40 31° WNW
Cosmos 1689 Rocket 4.5 01:14:11 23° NNE 01:14:11 23° NNE 01:15:49 10° N
Cosmos 972 Rocket 4.0 01:13:04 10° NNW 01:18:22 67° WSW 01:18:22 67° WSW
Meteor 2-15 4.4 01:18:30 57° SE 01:19:28 66° E 01:25:29 10° NNE
Geosat 3.8 01:15:06 10° NNE 01:20:09 87° ESE 01:20:22 82° S
Cosmos 1934 Rocket 4.3 01:18:29 10° NNW 01:24:41 56° W 01:25:51 49° SW
CZ-2C R/B 3.3 01:19:50 10° N 01:25:15 50° WNW 01:26:29 43° WSW
ATLAS CENTAUR R/B 2.3 01:25:16 10° NNW 01:27:59 41° N 01:27:59 41° N
Meteor 2-5 Rocket 3.7 01:30:24 65° SSW 01:31:19 85° W 01:37:19 10° N
USA 229 DEB 4.1 01:25:43 10° NW 01:32:27 45° WSW 01:33:13 44° SW
USA 229 4.1 01:25:49 10° NW 01:32:33 45° WSW 01:33:20 44° SW
Cosmos-2242 3.9 01:29:55 10° NNW 01:33:22 40° WNW 01:33:22 40° WNW
USA 234 3.1 01:32:58 51° SSE 01:34:42 73° SW 01:41:15 10° NW
SL-16 R/B 2.0 01:29:54 10° NNW 01:35:34 73° WSW 01:36:00 69° SSW
H-2A R/B 3.4 01:33:36 10° NNE 01:37:06 42° ENE 01:37:06 42° ENE
Cosmos 494 Rocket 4.0 01:37:26 62° W 01:37:53 65° WNW 01:43:02 10° NNE
NOSS 3-1 (A) 4.0 01:31:54 10° NW 01:39:30 82° NE 01:44:04 30° SE
Meteor 2-15 Rocket 4.3 01:38:58 62° SSE 01:40:04 81° E 01:46:10 10° N
Lacrosse 5 rocket 2.6 01:35:41 10° NW 01:40:10 44° NE 01:42:28 24° E
Cosmos 2221 2.9 01:51:09 10° N 01:55:22 53° E 01:55:22 53° E
Cosmos 2322 4.1 01:50:13 10° NNW 01:55:49 59° ENE 01:57:54 37° ESE
Lacrosse 5 2.0 01:57:21 60° ESE 01:57:21 60° ESE 02:02:05 10° NE
Cosmos 1842 Rocket 4.0 01:54:27 10° NNW 01:58:26 54° WNW 01:58:26 54° WNW
Helios 1A Rocket 4.3 01:56:23 10° NE 01:59:57 30° E 01:59:57 30° E
Cosmos 2098 Rocket 4.2 01:56:23 10° NNW 01:59:48 35° W 01:59:48 35° W
Cosmos 1833 4.2 01:59:46 60° SSE 02:00:27 66° ESE 02:06:05 10° NNE
ISS -1.0 01:59:38 10° NW 02:02:09 20° N 02:04:40 10° NE
Cosmos 1727 Rocket 4.3 02:02:32 45° WSW 02:03:56 54° WNW 02:10:04 10° N
Cosmos 1302 Rocket 4.3 02:00:29 10° NNW 02:05:27 49° W 02:05:27 49° W
In-Cosmos 22 4.0 02:06:46 67° S 02:07:30 84° E 02:13:00 10° NNE
COSMOS 2428 3.8 02:02:25 10° NNW 02:07:52 42° ENE 02:12:00 17° ESE
Cosmos 2084 Rocket 4.1 02:09:39 44° ENE 02:09:39 44° ENE 02:12:40 10° NE
Cosmos 1726 4.4 02:06:23 10° NNE 02:09:03 18° ENE 02:10:06 16° E
Landsat 5 4.3 02:11:30 42° WNW 02:11:30 42° WNW 02:15:21 10° NNW
Cosmos 2251 Rocket 4.5 02:09:45 34° W 02:11:04 39° WNW 02:16:06 10° N
Cosmos 2219 4.2 02:10:48 30° SE 02:11:51 32° ESE 02:16:46 10° NE
Meteor 2-17 Rocket 4.3 02:10:45 10° N 02:16:52 84° W 02:18:25 53° S
Cosmos 2360 Rocket 2.1 02:16:13 10° NNW 02:21:54 77° WSW 02:22:59 58° S
Cosmos 1992 Rocket 4.0 02:16:51 10° NNW 02:22:06 77° ENE 02:23:24 51° SE
Cosmos 1242 Rocket 4.1 02:20:35 10° NNE 02:23:40 28° ENE 02:24:02 27° E
Cosmos 1076 Rocket 3.5 02:24:41 72° ESE 02:24:46 72° E 02:29:06 10° NNE
Cosmos 1908 3.4 02:21:03 10° N 02:24:47 71° NE 02:24:47 71° NE
Cosmos 1725 Rocket 4.3 02:19:08 10° N 02:25:25 63° E 02:28:17 33° SSE
Meteor 1-24 Rocket 4.3 02:26:18 41° WSW 02:27:46 49° WNW 02:33:36 10° N
PSLV R/B 4.2 02:27:58 55° ESE 02:28:23 59° ENE 02:32:22 10° N
Cosmos 1000 Rocket 4.5 02:27:29 49° SSW 02:29:14 74° W 02:35:35 10° N
Cosmos 2322 Rocket 3.4 02:25:57 10° NW 02:30:12 26° W 02:30:12 26° W
SL-08 R/B 4.4 02:26:50 10° N 02:32:58 84° E 02:35:11 42° SSE
SL-08 R/B 4.5 02:31:19 22° SE 02:33:59 41° ENE 02:38:37 10° N
Okean 3 Rocket 3.7 02:35:12 60° W 02:35:26 61° W 02:39:58 10° N
Cosmos 1356 Rocket 4.0 02:35:12 43° ESE 02:35:27 44° E 02:39:19 10° NNE
Cosmos 2173 Rocket 4.1 02:29:39 10° NNW 02:35:38 57° W 02:37:02 46° SW
PSLV R/B 3.4 02:33:40 10° N 02:37:56 72° WNW 02:38:06 71° W
Cosmos 2333 Rocket 3.6 02:36:01 10° NNW 02:41:19 37° NE 02:46:33 10° ESE
Resurs 1-4 Rocket 4.0 02:39:33 10° NE 02:43:35 22° E 02:46:41 14° SE
CZ-2D R/B 3.9 02:43:45 10° NE 02:47:48 22° E 02:50:51 14° SE
Cosmos 1184 Rocket 3.8 02:51:00 41° NW 02:51:00 41° NW 02:53:33 10° N
SL-16 R/B 3.4 02:52:55 10° SE 02:58:44 47° ENE 03:04:36 10° N
SL-8 R/B 4.3 02:59:49 39° SSE 03:00:03 39° SE 03:04:31 10° ENE
Cosmos 2297 Rocket 4.0 02:58:57 13° SE 03:02:12 22° E 03:06:22 10° NE
Cosmos 1408 Rocket 3.5 03:03:08 57° SW 03:03:46 65° W 03:08:07 10° N
Cosmos 1340 Rocket 3.7 03:06:06 33° WNW 03:06:13 33° WNW 03:09:49 10° N
ERBS 4.2 03:07:24 21° ESE 03:07:24 21° ESE 03:09:39 10° ENE
Cosmos 1766 Rocket 3.7 03:06:27 51° WSW 03:07:07 58° W 03:11:27 10° N
Cosmos 2219 Rocket 2.4 03:02:45 10° NNW 03:08:27 71° ENE 03:13:56 11° SSE
ATLAS 3B CENTAUR R/B 4.3 03:05:23 28° SSW 03:08:44 31° S 03:15:10 10° SE
Cosmos 1500 Rocket 4.2 03:07:23 33° SSE 03:08:59 49° E 03:13:15 10° NNE
Cosmos 1674 3.7 03:12:42 33° W 03:12:50 33° WNW 03:16:22 10° N
H-2A R/B 4.4 03:10:00 10° NNW 03:12:53 18° WNW 03:13:44 17° W
NOSS 0 Rocket 4.3 03:08:15 10° NNW 03:14:26 65° ENE 03:20:36 10° SE
Cosmos 1328 3.8 03:14:58 53° S 03:15:48 79° E 03:19:48 10° N
Meteor 2-2 Rocket 4.1 03:10:21 10° NNW 03:16:01 80° W 03:18:47 31° S
Cosmos 1626 4.0 03:15:14 18° SE 03:17:03 25° E 03:20:10 10° NNE
SL-16 R/B 4.5 03:13:27 10° N 03:18:04 24° NE 03:22:38 10° ESE
GPS 2-04 Rocket1 4.5 03:19:42 20° SE 03:19:42 20° SE 03:21:45 10° ESE
Lacrosse 5 rocket 2.6 03:15:10 10° WNW 03:18:04 29° W 03:18:04 29° W
Cosmos 2237 Rocket 3.0 03:15:11 10° NNW 03:20:42 52° ENE 03:26:10 10° SE
Cosmos 1140 Rocket 4.2 03:20:46 25° SSE 03:23:26 47° ESE 03:28:26 10° NNE
Meteor 2-12 Rocket 4.5 03:17:33 10° N 03:23:45 81° E 03:28:17 19° SSE
Cosmos 1300 2.6 03:22:53 10° NNW 03:26:43 66° W 03:27:24 53° SSW
Cosmos 1515 Rocket 3.5 03:22:22 10° N 03:26:50 85° W 03:28:38 35° S
Cosmos 1743 Rocket 3.5 03:27:31 42° SSW 03:28:57 73° W 03:33:25 10° N
IRS-P3 4.2 03:24:35 10° N 03:29:52 64° WNW 03:32:12 33° SW
CBERS-1 4.0 03:25:48 10° N 03:30:55 73° WNW 03:33:10 34° SSW
ATLAS 2AS CENTAUR R/B 2.9 03:22:51 10° NW 03:30:56 83° WSW 03:38:22 10° SSE
Helios 1A Rocket 4.4 03:31:48 10° NNW 03:35:11 24° WNW 03:36:15 22° W
NPP 3.8 03:32:25 10° N 03:37:43 60° WNW 03:40:19 30° SW
BREEZE-M DEB (TANK) 4.0 03:30:23 18° WSW 03:38:45 73° SSE 03:42:42 10° ENE
Cosmos 2227 Rocket 2.7 03:35:24 23° S 03:38:46 55° ESE 03:44:18 10° NNE
NOSS 3-3 (A) 4.1 03:35:33 29° SSW 03:38:55 75° ESE 03:45:36 10° NE
NOSS 3-3 (C) 4.1 03:35:38 29° SSW 03:39:01 74° ESE 03:45:41 10° NE
ISS -1.9 03:36:20 10° NW 03:39:20 32° NNE 03:42:20 10° E
Lacrosse 5 3.2 03:36:31 14° W 03:40:20 33° NNW 03:44:57 10° NE
ARIANE 5 R/B 2.8 03:35:40 10° NNE 03:40:45 62° ESE 03:44:04 21° S
Cosmos 1954 Rocket 4.0 03:40:38 29° SSW 03:43:25 88° ESE 03:48:42 10° NNE
Cosmos 1726 3.1 03:41:05 10° NNW 03:44:26 30° W 03:44:41 30° W
Cosmos 407 Rocket 3.9 03:44:12 28° SW 03:46:37 49° WNW 03:51:38 10° N
ADEOS Rocket 3.5 03:41:00 10° NNE 03:48:20 90° NE 03:54:18 19° SSW
Cosmos 2228 Rocket 3.8 03:44:57 10° NNW 03:49:04 38° W 03:50:27 30° SW
Meteor 1-27 4.2 03:44:30 10° NNW 03:50:19 81° W 03:55:27 14° S
COSMOS 2428 3.5 03:46:59 10° NW 03:51:59 31° WSW 03:53:57 25° SW
Meteor 1-11 4.2 03:48:29 24° SSW 03:52:03 82° W 03:57:50 10° N
Cosmos 2058 2.8 03:50:53 30° SSW 03:52:51 81° W 03:56:59 10° N
NOSS 2-1 (E) 3.9 03:51:58 26° S 03:53:45 47° ESE 03:57:52 10° NE
Cosmos 1023 Rocket 4.5 03:50:51 25° SSW 03:53:57 89° ESE 03:59:13 10° NNE
Cosmos 2219 4.0 03:52:43 22° WSW 03:55:52 39° WNW 04:01:09 10° NNE
Cosmos 676 Rocket 4.3 03:55:12 26° SW 03:58:08 58° WNW 04:03:22 10° NNE
ERS-1 4.5 03:53:19 10° N 03:58:25 75° WNW 04:01:44 22° SSW
Cosmos 1242 Rocket 4.4 03:56:06 10° NW 03:58:10 17° W 03:58:10 17° W
Sich 1 4.5 03:57:03 10° SSE 04:01:03 35° E 04:05:04 10° NNE
Cosmos 2360 Rocket 4.2 04:04:42 10° W 04:04:43 10° W 04:04:43 10° W
Cosmos 2082 3.8 04:02:06 20° SSW 04:06:06 77° ESE 04:11:44 10° NNE
Cosmos 1072 Rocket 4.4 04:00:32 10° NNW 04:06:38 73° W 04:12:45 10° S
Spot 4 Rocket 4.1 04:02:56 10° N 04:08:02 62° WNW 04:11:30 20° SSW
Cosmos 1455 2.2 04:06:46 10° N 04:10:39 88° E 04:14:27 10° S
Cosmos 1703 3.3 04:11:15 24° SSW 04:13:28 60° W 04:17:20 10° N
Cosmos 2208 Rocket 4.1 04:08:34 10° NNW 04:13:46 78° ENE 04:18:59 10° SSE
CZ-2D R/B 3.8 04:11:27 10° NNE 04:15:26 61° E 04:19:09 12° S
Lacrosse 4 Rocket 3.7 04:14:31 10° SSE 04:17:19 18° ESE 04:20:10 10° ENE
Cosmos 1151 Rocket 4.0 04:16:56 10° NNW 04:20:40 29° W 04:22:47 19° SW
MOZ.5/SAFIR/RUBIN 5/SL-8 3.8 04:16:57 10° SSE 04:21:42 86° WSW 04:26:31 10° NNW
Cosmos 2151 3.9 04:20:03 20° SW 04:22:15 32° WNW 04:26:04 10° N
Resurs 1-4 Rocket 2.4 04:18:33 10° N 04:23:42 52° WNW 04:27:46 16° SW
IRS-1D 4.0 04:19:32 10° N 04:24:43 50° WNW 04:28:48 16° SW
Cosmos 2333 Rocket 2.8 04:20:23 10° NW 04:25:32 35° WSW 04:30:37 10° S
Cosmos 1707 Rocket 3.5 04:22:51 10° N 04:27:14 89° W 04:31:38 10° S
CZ-2D R/B 2.5 04:23:07 10° N 04:28:07 48° WNW 04:32:11 15° SW
UNKNOWN OBJECT B 2.8 04:24:34 10° N 04:28:38 79° WNW 04:32:07 13° SSW
Cosmos 1464 Rocket 4.2 04:23:12 10° NNW 04:29:11 53° W 04:35:06 10° SSW
CZ-3 R/B 4.3 03:45:54 10° WSW 04:30:47 49° SSW 04:41:33 10° ESE
MOS 1 Rocket 3.5 04:33:14 10° N 04:38:17 84° WNW 04:43:35 10° SSW
ADEOS 4.2 04:33:38 10° N 04:38:31 42° WNW 04:42:52 13° SW
ADEOS II 3.4 04:34:25 10° NNE 04:39:20 38° E 04:44:13 10° SSE
NOSS 7 (H) 4.3 04:36:51 16° SW 04:39:24 89° WNW 04:42:49 10° NE
Cosmos 1241 Rocket 4.5 04:34:49 10° NW 04:41:17 73° WSW 04:47:33 10° SSE
SL-8 R/B 4.0 04:37:46 10° WSW 04:42:28 67° NNW 04:47:16 10° ENE
SL-16 R/B 3.4 04:37:30 11° SSW 04:42:31 30° W 04:47:53 10° NW
Cosmos 1666 Rocket 3.5 04:38:20 10° SSW 04:42:43 79° W 04:47:11 10° N
ERBS 3.2 04:40:42 13° WSW 04:43:28 39° NW 04:46:42 10° NE
Cosmos 1980 4.4 04:39:31 10° NW 04:44:31 32° WSW 04:49:30 10° SSW
Cosmos 2297 Rocket 2.5 04:40:46 13° SW 04:45:46 58° WNW 04:51:21 10° NNE
Cosmos 1634 Rocket 4.4 04:43:37 10° N 04:49:49 66° E 04:55:56 10° SSE
Cosmos 2219 Rocket 3.7 04:48:09 10° WNW 04:51:45 17° W 04:55:21 10° SW
Cosmos 1356 4.5 04:49:32 13° SW 04:52:14 30° WNW 04:55:24 10° N
Cosmos 1626 3.7 04:49:54 12° WSW 04:52:23 21° WNW 04:55:16 10° NNW
Aureole 2 Rocket 4.1 04:49:28 10° NW 04:52:34 22° W 04:55:47 10° SSW
Okean O Rocket 2.6 04:52:27 10° NNE 04:56:41 47° E 05:00:52 10° S
GPS 2-04 Rocket1 4.0 04:54:10 11° WSW 04:57:33 26° S 05:01:06 10° SE
BREEZE-M DEB 2.1 04:55:21 10° WSW 04:59:10 71° NNW 05:01:13 10° ENE
GP-B 4.1 04:55:07 10° NNE 04:59:27 51° E 05:03:47 10° SSE
Cosmos 1805 Rocket 4.4 04:56:07 10° SW 05:00:11 34° WNW 05:04:16 10° N
CZ-4B R/B 3.7 04:58:07 10° NNE 05:02:35 59° E 05:06:50 10° S
SL-16 R/B 2.3 04:56:59 10° NNW 05:02:35 59° WSW 05:08:08 10° S
Cosmos 2237 Rocket 3.3 04:59:58 10° NW 05:04:23 24° WSW 05:08:46 10° SSW
CZ-4B R/B 4.1 04:59:41 10° NNE 05:04:50 50° E 05:10:01 10° S
Cosmos 1763 Rocket 4.2 05:02:35 10° NNW 05:07:49 61° ENE 05:12:56 10° SSE
Cosmos 1400 Rocket 4.1 05:06:51 10° SSE 05:10:30 41° E 05:14:14 10° NNE
